User: anonymous   Login
Location: Unspecified
(0.0000°N, 0.0000°E)
Time: 02:00:37
(UTC+02:00)
Language:

Cosmos 1703 - Orbit

View from above orbital plane
View from above orbital plane
View from above satellite
View from above satellite

Ground track
Ground track

The orbit data is extracted from the following two-line orbital elements,

1 16262U 85108A   16270.70614601  .00000434  00000-0  24866-4 0  9991
2 16262  82.4790 148.6588 0011892  97.5573 262.7007 15.09938796679133
Epoch (UTC): 26 September 2016 16:56:51
Eccentricity: 0.0011892
inclination: 82.4790°
perigee height: 528 km
apogee height: 544 km
right ascension of ascending node: 148.6588°
argument of perigee: 97.5573°
revolutions per day: 15.09938796
mean anomaly at epoch: 262.7007°
orbit number at epoch: 67913

The dashed part of the orbit path shows where the satellite is in the earth's shadow,  

DLR